Date String (YYYY-MM-DD hh:mm:ss) UTC,Instrument flags,absolute air pressure of the measurement (hPa),sample flow rate (lpm),inlet stack bypass flow (lpm),air temperature of the measurement (°C),ambient temperature measured by the external sensor (°C),aerosol sample conditioner tube jacket temperature (°C),OPC LED temperature (°C),internal box temperature (°C),relative humidity of the measurement (%),span deviation,mass concentration of particles derived from Lorenz-Mie calculation of OPC scattering (μg/m³),mass concentration of particles derived from Lorenz-Mie calculation of OPC scattering (μg/m³),mass concentration of particles derived from Lorenz-Mie calculation of OPC scattering (μg/m³)
DateTimeUTC,F1_M11,P_M11,Q1_M11,Q2_M11,T1_M11,T2_M11,T3_M11,T4_M11,T5_M11,U1_M11,ZSPAN_M11,X0_M11,X2_M11,X1_M11
2023-11-04 00:00:00,SystemResetWarning,0831.5,5.00,000.00,027.5,026.6,000.0,035.6,029.1,10.4,0000.0,0003.74,0001.99,0001.71
2023-11-04 00:01:00,SystemResetWarning,0831.6,5.00,000.00,027.5,026.6,000.0,035.7,029.2,10.6,0000.0,0003.57,0002.02,0001.71
2023-11-04 00:02:00,SystemResetWarning,0831.5,5.01,000.00,027.6,026.7,000.0,035.7,029.2,10.5,0000.0,0002.92,0002.05,0001.71
2023-11-04 00:03:00,SystemResetWarning,0831.5,5.00,000.00,027.6,026.8,000.0,035.7,029.2,10.7,0000.0,0002.98,0002.05,0001.70
2023-11-04 00:04:00,SystemResetWarning,0831.6,5.00,000.00,027.6,026.8,000.0,035.7,029.3,10.8,0000.0,0003.00,0002.04,0001.68
2023-11-04 00:05:00,SystemResetWarning,0831.6,5.00,000.00,027.7,026.9,000.0,035.8,029.3,10.5,0000.0,0002.98,0001.99,0001.63
2023-11-04 00:06:00,SystemResetWarning,0831.7,5.00,000.00,027.7,026.9,000.0,035.8,029.3,10.5,0000.0,0004.01,0001.99,0001.58
2023-11-04 00:07:00,SystemResetWarning,0831.6,5.00,000.00,027.7,027.0,000.0,035.8,029.3,10.5,0000.0,0005.89,0002.06,0001.57
2023-11-04 00:08:00,SystemResetWarning,0831.7,5.00,000.00,027.8,027.0,000.0,035.9,029.4,10.9,0000.0,0005.94,0002.04,0001.55
2023-11-04 00:09:00,SystemResetWarning,0831.7,5.00,000.00,027.8,027.0,000.0,035.9,029.4,10.8,0000.0,0006.03,0002.08,0001.55
2023-11-04 00:10:00,SystemResetWarning,0831.7,5.00,000.00,027.8,027.1,000.0,035.9,029.4,10.6,0000.0,0006.60,0002.11,0001.56
2023-11-04 00:11:00,SystemResetWarning,0832.1,5.01,000.00,027.9,027.1,000.0,036.0,029.5,10.8,0000.0,0006.52,0002.13,0001.57
2023-11-04 00:12:00,SystemResetWarning,0832.1,5.00,000.00,027.9,027.1,000.0,036.0,029.5,10.9,0000.0,0006.57,0002.13,0001.56
2023-11-04 00:13:00,SystemResetWarning,0832.3,4.99,000.00,027.9,026.9,000.0,036.0,029.5,11.3,0000.0,0006.47,0002.07,0001.55
2023-11-04 00:14:00,SystemResetWarning,0831.9,4.99,000.00,027.9,024.9,000.0,036.0,029.3,11.3,0000.0,0006.50,0002.06,0001.53
2023-11-04 00:15:00,SystemResetWarning,0832.1,5.00,000.00,027.8,023.8,000.0,035.9,029.1,11.9,0000.0,0007.02,0002.09,0001.52
2023-11-04 00:16:00,SystemResetWarning,0831.9,5.01,000.00,027.6,024.0,000.0,035.9,028.7,11.7,0000.0,0007.05,0002.12,0001.52
2023-11-04 00:17:00,SystemResetWarning,0832.2,5.01,000.00,027.5,024.4,000.0,035.9,028.5,11.8,0000.0,0006.53,0002.13,0001.53
2023-11-04 00:18:00,SystemResetWarning,0831.8,5.00,000.00,027.5,024.8,000.0,035.8,028.6,12.3,0000.0,0004.85,0002.08,0001.55
2023-11-04 00:19:00,SystemResetWarning,0831.8,5.00,000.00,027.4,025.2,000.0,035.8,028.7,12.3,0000.0,0005.59,0002.14,0001.56
2023-11-04 00:20:00,SystemResetWarning,0831.8,4.99,000.00,027.4,025.5,000.0,035.8,028.8,12.4,0000.0,0006.72,0002.16,0001.56
2023-11-04 00:21:00,SystemResetWarning,0831.9,5.00,000.00,027.4,025.7,000.0,035.8,028.8,12.4,0000.0,0007.50,0002.22,0001.55
2023-11-04 00:22:00,SystemResetWarning,0831.9,5.00,000.00,027.5,025.9,000.0,035.8,028.9,12.7,0000.0,0008.36,0002.27,0001.54
2023-11-04 00:23:00,SystemResetWarning,0832.0,5.01,000.00,027.5,026.1,000.0,035.8,029.0,12.6,0000.0,0008.53,0002.28,0001.54
2023-11-04 00:24:00,SystemResetWarning,0832.0,5.00,000.00,027.5,026.3,000.0,035.8,029.1,12.5,0000.0,0008.59,0002.34,0001.54
2023-11-04 00:25:00,SystemResetWarning,0832.0,5.00,000.00,027.5,026.4,000.0,035.8,029.1,12.4,0000.0,0008.70,0002.35,0001.53
2023-11-04 00:26:00,SystemResetWarning,0832.0,5.00,000.00,027.6,026.5,000.0,035.8,029.1,12.5,0000.0,0008.84,0002.34,0001.54
2023-11-04 00:27:00,SystemResetWarning,0832.0,4.99,000.00,027.6,026.6,000.0,035.8,029.2,12.5,0000.0,0009.26,0002.37,0001.54
2023-11-04 00:28:00,SystemResetWarning,0832.0,5.00,000.00,027.6,026.6,000.0,035.8,029.2,12.5,0000.0,0010.41,0002.38,0001.53
2023-11-04 00:29:00,SystemResetWarning,0832.0,5.00,000.00,027.6,026.7,000.0,035.9,029.2,12.6,0000.0,0011.15,0002.41,0001.53
2023-11-04 00:30:00,SystemResetWarning,0832.0,4.99,000.00,027.7,026.8,000.0,035.9,029.2,12.5,0000.0,0010.94,0002.45,0001.53
2023-11-04 00:31:00,SystemResetWarning,0832.1,5.00,000.00,027.7,026.8,000.0,035.9,029.2,12.8,0000.0,0010.39,0002.46,0001.53
2023-11-04 00:32:00,SystemResetWarning,0832.1,5.01,000.00,027.7,026.8,000.0,035.9,029.3,12.8,0000.0,0009.76,0002.48,0001.53
2023-11-04 00:33:00,SystemResetWarning,0832.0,5.00,000.00,027.7,026.9,000.0,035.9,029.3,12.8,0000.0,0009.14,0002.43,0001.53
2023-11-04 00:34:00,SystemResetWarning,0832.1,4.99,000.00,027.8,026.9,000.0,035.9,029.4,12.7,0000.0,0009.05,0002.49,0001.52
2023-11-04 00:35:00,SystemResetWarning,0832.1,5.00,000.00,027.8,027.0,000.0,036.0,029.4,12.7,0000.0,0009.19,0002.54,0001.53
2023-11-04 00:36:00,SystemResetWarning,0832.1,5.00,000.00,027.8,027.0,000.0,036.0,029.4,12.1,0000.0,0009.45,0002.58,0001.53
2023-11-04 00:37:00,SystemResetWarning,0832.1,5.00,000.00,027.9,027.0,000.0,036.0,029.4,12.0,0000.0,0009.34,0002.59,0001.52
2023-11-04 00:38:00,SystemResetWarning,0832.1,5.00,000.00,027.9,027.1,000.0,036.0,029.4,12.4,0000.0,0009.68,0002.57,0001.52
2023-11-04 00:39:00,SystemResetWarning,0832.1,5.00,000.00,027.9,027.1,000.0,036.1,029.4,12.5,0000.0,0009.29,0002.59,0001.52
2023-11-04 00:40:00,SystemResetWarning,0832.1,5.00,000.00,027.9,027.1,000.0,036.1,029.5,12.5,0000.0,0009.00,0002.58,0001.51
2023-11-04 00:41:00,SystemResetWarning,0832.1,5.00,000.00,027.9,027.1,000.0,036.1,029.5,12.4,0000.0,0008.96,0002.56,0001.50
2023-11-04 00:42:00,SystemResetWarning,0832.2,4.99,000.00,028.0,026.6,000.0,036.1,029.5,12.1,0000.0,0009.75,0002.47,0001.48
2023-11-04 00:43:00,SystemResetWarning,0832.2,5.00,000.00,027.9,024.5,000.0,036.1,029.3,12.4,0000.0,0010.18,0002.42,0001.47
2023-11-04 00:44:00,SystemResetWarning,0832.2,5.01,000.00,027.8,023.8,000.0,036.0,029.0,12.5,0000.0,0010.41,0002.42,0001.48
2023-11-04 00:45:00,SystemResetWarning,0832.1,5.01,000.00,027.6,024.0,000.0,036.0,028.6,12.5,0000.0,0011.56,0002.42,0001.51
2023-11-04 00:46:00,SystemResetWarning,0832.1,4.99,000.00,027.5,024.4,000.0,035.9,028.6,12.6,0000.0,0011.92,0002.48,0001.53
2023-11-04 00:47:00,SystemResetWarning,0832.1,4.99,000.00,027.5,024.8,000.0,035.9,028.6,12.1,0000.0,0011.64,0002.50,0001.55
2023-11-04 00:48:00,SystemResetWarning,0832.2,5.00,000.00,027.5,025.2,000.0,035.9,028.7,12.6,0000.0,0011.50,0002.61,0001.57
2023-11-04 00:49:00,SystemResetWarning,0832.1,5.01,000.00,027.5,025.5,000.0,035.9,028.8,12.6,0000.0,0011.01,0002.68,0001.59
2023-11-04 00:50:00,SystemResetWarning,0832.2,5.01,000.00,027.5,025.8,000.0,035.8,028.9,12.1,0000.0,0010.89,0002.70,0001.59
2023-11-04 00:51:00,SystemResetWarning,0832.1,5.00,000.00,027.5,026.0,000.0,035.8,028.9,12.1,0000.0,0010.36,0002.70,0001.59
2023-11-04 00:52:00,SystemResetWarning,0832.2,5.00,000.00,027.5,026.2,000.0,035.8,029.0,11.9,0000.0,0010.19,0002.65,0001.59
2023-11-04 00:53:00,SystemResetWarning,0832.2,5.00,000.00,027.5,026.3,000.0,035.8,029.0,12.2,0000.0,0009.55,0002.65,0001.59
2023-11-04 00:54:00,SystemResetWarning,0832.2,5.00,000.00,027.5,026.4,000.0,035.8,029.0,12.1,0000.0,0008.82,0002.64,0001.60
2023-11-04 00:55:00,SystemResetWarning,0832.2,5.00,000.00,027.6,026.5,000.0,035.9,029.0,12.2,0000.0,0009.04,0002.65,0001.59
2023-11-04 00:56:00,SystemResetWarning,0832.2,5.00,000.00,027.6,026.6,000.0,035.9,029.1,12.2,0000.0,0007.89,0002.63,0001.57
2023-11-04 00:57:00,SystemResetWarning,0832.2,5.00,000.00,027.6,026.6,000.0,035.9,029.2,12.1,0000.0,0007.24,0002.50,0001.56
2023-11-04 00:58:00,SystemResetWarning,0832.2,5.00,000.00,027.6,026.7,000.0,035.9,029.2,12.0,0000.0,0007.47,0002.44,0001.53
2023-11-04 00:59:00,SystemResetWarning,0832.2,5.00,000.00,027.7,026.7,000.0,035.9,029.2,12.2,0000.0,0008.08,0002.36,0001.53
